Weather History for KMQI - December, 2012

Change the Weather History Date:

Sunday, December 16, 2012

  Actual Average Record
Temperature  
Mean Temperature 56 °F -  
Max Temperature 59 °F 52 °F 75 °F (1971)
Min Temperature 54 °F 39 °F 1 °F (2000)
Degree Days  
Heating Degree Days 8    
Growing Degree Days 6 (Base 50)    
Moisture  
Dew Point 55 °F    
Average Humidity 96    
Maximum Humidity 99    
Minimum Humidity 84    
Precipitation  
Precipitation 0.69 in - - ()
Sea Level Pressure  
Sea Level Pressure 30.01 in    
Wind  
Wind Speed 5 mph (South)    
Max Wind Speed 12 mph    
Max Gust Speed 16 mph    
Visibility 8 miles    
Events Rain    
Averages and records for this station are not official NWS values.
T = Trace of Precipitation, MM = Missing Value Source: NWS Daily Summary

Daily Weather History Graph

Daily Weather History Graph

Search for Another Location

Airport or City:

Trip Planner

Search our weather history database for the weather conditions in past years. The results will help you decide how hot, cold, wet, or windy it might be!

Date:

Astronomy

Dec. 16, 2012 Rise Set
Actual Time 7:06 AM EST 4:50 PM EST
Civil Twilight 6:38 AM EST 5:19 PM EST
Nautical Twilight 6:06 AM EST 5:51 PM EST
Astronomical Twilight 5:34 AM EST 6:22 PM EST
Moon 9:44 AM EST (12/16) 8:55 PM EST (12/16)
Length of Visible Light 10h 40m
Length of Day
9h 43m
Waxing Crescent, 16% of the Moon is Illuminated
Dec 16
Waxing Crescent
Dec 20
First Quarter
Dec 28
Full
Jan 4
Last Quarter
Jan 11
New

Hourly Weather History & Observations

Time (EST) Temp. Dew Point Humidity Pressure Visibility Wind Dir Wind Speed Gust Speed Precip Events Conditions
12:15 AM 57.6 °F 52.7 °F 84% 30.11 in 10.0 mi South 4.6 mph - N/A Rain Light Rain
12:35 AM 56.3 °F 53.1 °F 89% 30.10 in 10.0 mi SSE 3.5 mph - N/A   Overcast
12:55 AM 57.2 °F 53.6 °F 88% 30.09 in 10.0 mi South 4.6 mph - N/A   Overcast
1:15 AM 58.3 °F 54.1 °F 86% 30.09 in 10.0 mi South 9.2 mph - N/A   Overcast
1:55 AM 57.0 °F 53.6 °F 88% 30.09 in 10.0 mi SSW 6.9 mph - N/A   Overcast
2:55 AM 58.6 °F 54.7 °F 87% 30.07 in 10.0 mi SSW 10.4 mph - N/A   Overcast
3:15 AM 55.6 °F 53.8 °F 94% 30.07 in 7.0 mi SSW 9.2 mph - N/A   Light Drizzle
3:55 AM 58.1 °F 56.5 °F 94% 30.06 in 10.0 mi South 5.8 mph - N/A   Light Drizzle
4:15 AM 57.9 °F 56.5 °F 95% 30.05 in 10.0 mi South 5.8 mph - N/A   Overcast
4:35 AM 59.0 °F 56.3 °F 91% 30.04 in 10.0 mi South 8.1 mph - N/A   Overcast
5:55 AM 56.3 °F 55.0 °F 96% 30.06 in 5.0 mi Calm Calm - 0.08 in Rain Rain
6:15 AM 56.3 °F 55.4 °F 97% 30.05 in 3.0 mi Calm Calm - 0.07 in Rain Rain
6:35 AM 57.2 °F 56.3 °F 97% 30.05 in 5.0 mi Calm Calm - 0.11 in Rain Light Rain
6:55 AM 57.2 °F 56.5 °F 97% 30.06 in 2.5 mi Calm Calm - 0.20 in Rain Rain
7:15 AM 57.6 °F 56.8 °F 97% 30.09 in 2.5 mi WNW 11.5 mph 16.1 mph 0.21 in Rain Heavy Rain
7:35 AM 54.7 °F 53.8 °F 97% 30.08 in 4.0 mi North 10.4 mph 16.1 mph 0.29 in Rain Light Rain
7:55 AM 54.7 °F 53.8 °F 97% 30.08 in 5.0 mi North 3.5 mph - 0.34 in Rain Light Rain
8:15 AM 54.9 °F 54.0 °F 97% 30.08 in 10.0 mi Calm Calm - 0.01 in Rain Light Rain
8:35 AM 54.9 °F 54.0 °F 97% 30.08 in 7.0 mi North 3.5 mph - 0.04 in Rain Light Rain
8:55 AM 54.7 °F 53.8 °F 97% 30.07 in 10.0 mi Calm Calm - 0.06 in Rain Light Rain
9:15 AM 55.0 °F 54.1 °F 97% 30.08 in 10.0 mi Calm Calm - N/A Rain Light Rain
9:35 AM 54.5 °F 53.4 °F 96% 30.06 in 7.0 mi Calm Calm - 0.01 in   Light Drizzle
9:55 AM 54.7 °F 53.8 °F 97% 30.04 in 5.0 mi Calm Calm - 0.01 in   Mostly Cloudy
10:15 AM 54.7 °F 53.8 °F 97% 30.05 in 7.0 mi SSW 3.5 mph - N/A   Overcast
10:35 AM 55.4 °F 54.5 °F 97% 30.04 in 10.0 mi SSW 5.8 mph - N/A   Overcast
10:55 AM 55.4 °F 54.1 °F 96% 30.03 in 10.0 mi SSW 6.9 mph - N/A   Overcast
11:15 AM 55.4 °F 54.3 °F 96% 30.03 in 1.8 mi South 6.9 mph - N/A   Overcast
11:35 AM 55.2 °F 54.3 °F 97% 30.01 in 0.8 mi South 6.9 mph - N/A   Overcast
11:55 AM 55.6 °F 54.7 °F 97% 30.01 in 3.0 mi South 4.6 mph - N/A   Overcast
12:15 PM 55.6 °F 54.7 °F 97% 30.00 in 10.0 mi South 4.6 mph - N/A   Overcast
12:35 PM 55.4 °F 54.5 °F 97% 30.00 in 10.0 mi South 6.9 mph - N/A   Overcast
12:55 PM 55.6 °F 54.7 °F 97% 30.00 in 7.0 mi South 6.9 mph - N/A   Overcast
1:15 PM 56.3 °F 55.4 °F 97% 30.00 in 10.0 mi SSW 3.5 mph - N/A   Overcast
1:35 PM 57.2 °F 55.9 °F 96% 30.00 in 10.0 mi Calm Calm - N/A   Overcast
1:55 PM 57.2 °F 55.8 °F 95% 30.00 in 10.0 mi Calm Calm - N/A   Overcast
2:35 PM 58.1 °F 56.7 °F 95% 29.98 in 10.0 mi Calm Calm - N/A   Light Drizzle
2:55 PM 57.9 °F 56.7 °F 96% 29.97 in 10.0 mi South 3.5 mph - N/A   Overcast
3:15 PM 56.7 °F 55.6 °F 96% 29.97 in 10.0 mi Calm Calm - N/A   Overcast
3:35 PM 56.7 °F 55.6 °F 96% 29.97 in 10.0 mi South 4.6 mph - N/A   Overcast
3:55 PM 55.8 °F 54.7 °F 96% 29.98 in 10.0 mi South 5.8 mph - N/A   Overcast
4:15 PM 55.4 °F 54.1 °F 96% 29.98 in 10.0 mi South 4.6 mph - N/A   Overcast
4:35 PM 55.4 °F 54.5 °F 97% 29.98 in 10.0 mi South 5.8 mph - N/A   Overcast
4:55 PM 56.3 °F 55.4 °F 97% 29.98 in 10.0 mi South 10.4 mph - N/A   Light Drizzle
5:15 PM 56.5 °F 55.8 °F 97% 29.98 in 10.0 mi South 8.1 mph - N/A   Overcast
5:35 PM 55.9 °F 55.2 °F 97% 29.98 in 10.0 mi South 8.1 mph - N/A   Overcast
5:55 PM 56.3 °F 55.4 °F 97% 29.97 in 7.0 mi South 8.1 mph - N/A   Overcast
6:15 PM 56.3 °F 55.6 °F 97% 29.98 in 0.8 mi South 9.2 mph - N/A   Overcast
6:35 PM 56.3 °F 55.6 °F 97% 29.96 in 0.8 mi South 8.1 mph - N/A   Light Drizzle
6:55 PM 55.9 °F 55.4 °F 98% 29.97 in 1.0 mi South 6.9 mph - N/A   Overcast
7:15 PM 55.8 °F 55.4 °F 99% 29.97 in 1.0 mi SSW 4.6 mph - N/A   Overcast
7:35 PM 56.7 °F 56.3 °F 99% 29.96 in 5.0 mi SSW 4.6 mph - N/A   Overcast
7:55 PM 55.8 °F 55.4 °F 99% 29.96 in 7.0 mi SSW 5.8 mph - N/A   Overcast
8:15 PM 55.9 °F 55.4 °F 98% 29.95 in 10.0 mi SSW 4.6 mph - N/A   Overcast
8:35 PM 56.5 °F 55.9 °F 98% 29.94 in 10.0 mi South 4.6 mph - N/A   Mostly Cloudy
8:55 PM 56.7 °F 56.3 °F 99% 29.94 in 10.0 mi SSW 3.5 mph - N/A   Mostly Cloudy
9:15 PM 56.8 °F 56.3 °F 98% 29.94 in 10.0 mi South 6.9 mph - N/A   Scattered Clouds
9:35 PM 56.8 °F 56.3 °F 98% 29.94 in 10.0 mi SSW 6.9 mph - N/A   Overcast
9:55 PM 56.5 °F 55.8 °F 97% 29.95 in 10.0 mi South 8.1 mph - N/A   Overcast
10:15 PM 56.7 °F 55.9 °F 97% 29.94 in 10.0 mi South 5.8 mph - N/A   Overcast
10:35 PM 57.4 °F 56.5 °F 97% 29.93 in 10.0 mi South 3.5 mph - N/A   Overcast
10:55 PM 56.5 °F 55.6 °F 97% 29.92 in 10.0 mi South 5.8 mph - N/A   Overcast
11:15 PM 56.5 °F 55.6 °F 97% 29.93 in 10.0 mi SSW 5.8 mph - N/A   Overcast
11:55 PM 57.7 °F 56.8 °F 97% 29.91 in 10.0 mi South 8.1 mph - N/A   Mostly Cloudy